Home   Weather   Pocatello   Past weeks

Flag for USA Past Weather in Pocatello, Idaho, USA — Yesterday and Last 2 Weeks

Now
50 °F

Scattered clouds.


Feels Like: 46 °F
Forecast: 36 / 60 °F
Wind: 9 mph from Southwest

Location: Pocatello Regional Airport

Current Time: Apr 30, 2017 at 9:21:59 am

Latest Report: Apr 30, 2017 at 8:53 am


Visibility: 10 mi

Pressure: 30.11 "Hg (25.56 "Hg at 1357m altitude)

Humidity: 48%

Dew Point: 31 °F

Location of PocatelloLocation

Past Weather in Pocatello — Graph

°F

Pocatello Temperature Yesterday

Maximum temperature yesterday: 56 °F (at 4:53 pm)
Minimum temperature yesterday: 28 °F (at 5:53 am)
Average temperature yesterday: 43 °F

High & Low Weather Summary for the Past Weeks

 TemperatureHumidityPressure
High66 °F (Apr 16, 3:53 pm)100% (Apr 27, 2:08 pm)30.29 "Hg (Apr 27, 2:08 pm)
Low26 °F (Apr 16, 6:53 am)24% (Apr 16, 5:53 pm)29.62 "Hg (Apr 24, 5:53 pm)
Average44 °F69%29.98 "Hg
* Reported Apr 15 7:53 am — Apr 30 7:53 am, Pocatello, Weather by CustomWeather, © 2017

Note: Actual official high and low records may vary slightly from our data, if they occured in-between our weather recording intervals... More about our weather records

Advertising

Pocatello Weather History for the Previous 24 Hours

Scroll right to see more
 ConditionsComfort  
Time TempWeatherWind HumidityBarometerVisibility
7:53 am
Sun, Apr 30
42 °FPartly sunny.14 mph62%30.11 "Hg10 mi
6:53 am45 °FPassing clouds.8 mph51%30.10 "Hg10 mi
5:53 am43 °FClear.8 mph53%30.10 "Hg10 mi
4:53 am41 °FPassing clouds.6 mph55%30.10 "Hg10 mi
3:53 am42 °FClear.8 mph49%30.11 "Hg10 mi
2:53 am38 °FClear.9 mph63%30.13 "Hg10 mi
1:53 am40 °FClear.8 mph53%30.13 "Hg10 mi
12:53 am40 °FClear.5 mph53%30.16 "Hg10 mi
11:53 pm
Sat, Apr 29
38 °FClear.9 mph63%30.17 "Hg10 mi
10:53 pm43 °FClear.9 mph51%30.19 "Hg10 mi
9:53 pm45 °FClear.12 mph51%30.19 "Hg10 mi
8:53 pm44 °FSunny.8 mph58%30.18 "Hg10 mi
7:53 pm52 °FSunny.12 mph38%30.17 "Hg10 mi
6:53 pm54 °FPassing clouds.15 mph34%30.17 "Hg10 mi
5:53 pm56 °FScattered clouds.8 mph36%30.18 "Hg10 mi
4:53 pm56 °FScattered clouds.3 mph33%30.17 "Hg10 mi
3:53 pm55 °FScattered clouds.No wind37%30.20 "Hg10 mi
2:53 pm54 °FScattered clouds.6 mph38%30.22 "Hg10 mi
1:53 pm54 °FScattered clouds.8 mph35%30.22 "Hg10 mi
12:53 pm50 °FScattered clouds.3 mph41%30.25 "Hg10 mi
11:53 am48 °FScattered clouds.3 mph52%30.25 "Hg10 mi
10:53 am43 °FPassing clouds.No wind60%30.27 "Hg10 mi
9:53 am41 °FPassing clouds.7 mph67%30.27 "Hg10 mi
Weather by CustomWeather, © 2017

See weather overviewHow to use our weather pages